Location: Ripley
(48.3812°N, 115.4473°W)
Time: 03:58:29
(UTC+00:00)

RS-15 - Pass Details

Date: 07 July 2022
Orbit: 1881 x 2163 km, 64.8° (Epoch: 10 August)

Event Time Altitude Azimuth Distance (km) Brightness Sun altitude
Rises 06:50:56 0° 322° (NW) 5,700 11.7 -17.9°
Reaches altitude 10° 06:54:28 10° 319° (NW) 4,691 10.9 -18.1°
Maximum altitude 07:06:25 60° 244° (WSW) 2,373 8.3 -18.5°
Enters shadow 07:14:13 24° 175° (S) 3,529 8.7 -18.7°
